User: anonymous   Login
Location: Caltech
(34.1382°N, 118.1253°W)
Time: 05:10:59
(UTC-07:00)
Language:

Oscar 10/S400 - Orbit

View from above orbital plane
View from above orbital plane
View from above satellite
View from above satellite

Ground track
Ground track

The orbit data is extracted from the following two-line orbital elements,

1 14129U 83058B   15208.15813978  .00000186  00000-0  00000+0 0  9993
2 14129 025.9175 146.3875 6075303 118.4790 001.9799 02.05867191213589
Epoch (UTC): 27 July 2015 03:47:43
Eccentricity: 0.6075303
inclination: 25.9175°
perigee height: 3866 km
apogee height: 35581 km
right ascension of ascending node: 146.3875°
argument of perigee: 118.4790°
revolutions per day: 2.05867191
mean anomaly at epoch: 1.9799°
orbit number at epoch: 21358

The dashed part of the orbit path shows where the satellite is in the earth's shadow,  

DLR